Location: Newark
(44.1667°N, 8.2500°E)
Time: 19:47:54
(UTC+00:00)

S-56A Canister/Altair - Pass Details

Date: 17 December 2019
Orbit: 634 x 2498 km, 38.9° (Epoch: 18 January)

Event Time Altitude Azimuth Distance (km) Brightness Sun altitude
Rises 06:04:04 0° 206° (SSW) 4,729 11.5 -9.1°
Reaches altitude 10° 06:07:17 10° 197° (SSW) 4,002 11.3 -8.6°
Maximum altitude 06:16:46 33° 138° (SE) 3,140 11.4 -7.0°
Drops below altitude 10° 06:28:44 10° 83° (E) 5,094 12.7 -5.1°
Sets 06:33:26 0° 75° (ENE) 6,174 12.9 -4.4°
